FENGYUN 1C DEB, 31029

Orbit data source: Space-Track

FENGYUN 1C DEB, 31029 is space debris in SSO originally from a launch on Mon, 10 May 1999 UTC launched from the Taiyaun Space Center, China (TSC). Fengyun 1C debris stems from the Chinese weather satellite Fengyun-1C, which was intentionally destroyed by a Chinese anti-satellite missile in 2007. This event dramatically increased the amount of space debris, with thousands of trackable fragments posing hazards to satellites and human spaceflight. The Fengyun 1C debris cloud has become a focal point in discussions about space sustainability and the need for international regulations to prevent the creation of new debris.

Loading next visibility...
Identifier
31029, 1999-025BDX
Orbit
SSO
Country
Flag of CNCN / PRC
Related business
Manufacturer
Unknown
Mission
Spacecraft
Bus & Motor
Unknown
Mass
Unknown
Launch date (UTC)
1999-05-10 (27 years ago)
Launch vehicle
Unknown
Launch site
Taiyaun Space Center, China (TSC)
Object type
Payload
Rocket body
Debris
Shape & HBR
Unknown shape, 0.1 m
Radar Cross Section
Small (<0.1 m²)

Expand to show TLE details & history
Last TLE update: 12 hours ago

TLE from 12 hours ago
0 FENGYUN 1C DEB
1 31029U 99025BDX 26166.99014148  .00000510  00000-0  18891-3 0  9993
2 31029  98.8466  73.4264 0087447 249.4837 125.4029 14.34693420  4464
Epoch: 2026-06-15T23:45Z
TLE epoch observation values (Epoch: 2026-06-15T23:45:48.223Z)
Latitude
15.4848°
Longitude
170.24867°
Altitude
814.937 km
Speed
7.428 km/s
True Right ascension
04h 43m 52s
True Declination
15° 23' 50"
Sunlit
Object was in daylight at epoch
Visualization orbit readout
Latitude
Unknown
Longitude
Unknown
Altitude
Unknown
Speed
Unknown
Apparent Right ascension
Unknown
Apparent Declination
Unknown
Sunlit
N/A
Visualization observer readout
Local Sidereal Time
22:17:33
Azimuth
Unknown
Elevation
Unknown
Doppler factor
Unknown
Orbital elements
Apogee altitude
835.767 km
Perigee altitude
710.694 km
Semi-major axis
7,151.368 km
Eccentricity
0.00874
Inclination
98.8466°
RAAN
73.4264°
Arg. of periapsis
249.4837°
True anomaly
126.21452°
Mean anomaly
125.4029°
Eccentric anomaly
125.80922°
Mean motion
3.58888 °/min
Orbital period
100.31 mins
BSTAR
0.00018891
Loading maneuver chart data...
Computing Atmospheric mass density...

Documentation

Showing up to 5 results
|